Index of /20260507/WXO-DD/model_gdps/15km/00/213
Name Last modified Size Description
Parent Directory -
20260507T00Z_MSC_GDPS_AirTemp_AGL-120m_LatLon0.15_PT213H.grib2 2026-05-07 04:44 909K
20260507T00Z_MSC_GDPS_AirTemp_AGL-2m_LatLon0.15_PT213H.grib2 2026-05-07 04:44 1.0M
20260507T00Z_MSC_GDPS_AirTemp_AGL-40m_LatLon0.15_PT213H.grib2 2026-05-07 04:44 815K
20260507T00Z_MSC_GDPS_AirTemp_AGL-80m_LatLon0.15_PT213H.grib2 2026-05-07 04:44 919K
20260507T00Z_MSC_GDPS_AirTemp_IsbL-0001_LatLon0.15_PT213H.grib2 2026-05-07 04:44 673K
20260507T00Z_MSC_GDPS_AirTemp_IsbL-0005_LatLon0.15_PT213H.grib2 2026-05-07 04:44 700K
20260507T00Z_MSC_GDPS_AirTemp_IsbL-0500_LatLon0.15_PT213H.grib2 2026-05-07 04:44 1.0M
20260507T00Z_MSC_GDPS_AirTemp_IsbL-0700_LatLon0.15_PT213H.grib2 2026-05-07 04:44 961K
20260507T00Z_MSC_GDPS_AirTemp_IsbL-0850_LatLon0.15_PT213H.grib2 2026-05-07 04:44 1.1M
20260507T00Z_MSC_GDPS_AirTemp_IsbL-0925_LatLon0.15_PT213H.grib2 2026-05-07 04:44 1.1M
20260507T00Z_MSC_GDPS_AirTemp_IsbL-1000_LatLon0.15_PT213H.grib2 2026-05-07 04:44 1.1M
20260507T00Z_MSC_GDPS_Albedo_Sfc_LatLon0.15_PT213H.grib2 2026-05-07 04:44 242K
20260507T00Z_MSC_GDPS_ConvectivePrecip-Accum_Sfc_LatLon0.15_PT213H.grib2 2026-05-07 04:44 3.8M
20260507T00Z_MSC_GDPS_DewPointDepression_AGL-2m_LatLon0.15_PT213H.grib2 2026-05-07 04:44 765K
20260507T00Z_MSC_GDPS_DewPointDepression_IsbL-0500_LatLon0.15_PT213H.grib2 2026-05-07 04:44 1.0M
20260507T00Z_MSC_GDPS_DewPointDepression_IsbL-0700_LatLon0.15_PT213H.grib2 2026-05-07 04:44 1.1M
20260507T00Z_MSC_GDPS_DewPointDepression_IsbL-0850_LatLon0.15_PT213H.grib2 2026-05-07 04:44 1.1M
20260507T00Z_MSC_GDPS_DewPointDepression_IsbL-0925_LatLon0.15_PT213H.grib2 2026-05-07 04:44 1.0M
20260507T00Z_MSC_GDPS_DewPointDepression_IsbL-1000_LatLon0.15_PT213H.grib2 2026-05-07 04:44 970K
20260507T00Z_MSC_GDPS_DewPoint_AGL-2m_LatLon0.15_PT213H.grib2 2026-05-07 04:44 604K
20260507T00Z_MSC_GDPS_DownwardLongwaveRadiationFlux-Accum_Sfc_LatLon0.15_PT213H.grib2 2026-05-07 04:44 726K
20260507T00Z_MSC_GDPS_DownwardShortwaveRadiationFlux-Accum_Sfc_LatLon0.15_PT213H.grib2 2026-05-07 04:44 891K
20260507T00Z_MSC_GDPS_FreezingRain-Accum_Sfc_LatLon0.15_PT213H.grib2 2026-05-07 04:44 472K
20260507T00Z_MSC_GDPS_GeopotentialHeight_IsbL-0001_LatLon0.15_PT213H.grib2 2026-05-07 04:44 452K
20260507T00Z_MSC_GDPS_GeopotentialHeight_IsbL-0005_LatLon0.15_PT213H.grib2 2026-05-07 04:44 357K
20260507T00Z_MSC_GDPS_GeopotentialHeight_IsbL-0500_LatLon0.15_PT213H.grib2 2026-05-07 04:44 537K
20260507T00Z_MSC_GDPS_GeopotentialHeight_IsbL-0700_LatLon0.15_PT213H.grib2 2026-05-07 04:44 695K
20260507T00Z_MSC_GDPS_GeopotentialHeight_IsbL-0850_LatLon0.15_PT213H.grib2 2026-05-07 04:44 716K
20260507T00Z_MSC_GDPS_GeopotentialHeight_IsbL-0925_LatLon0.15_PT213H.grib2 2026-05-07 04:44 736K
20260507T00Z_MSC_GDPS_GeopotentialHeight_IsbL-1000_LatLon0.15_PT213H.grib2 2026-05-07 04:44 790K
20260507T00Z_MSC_GDPS_IcePellets-Accum_Sfc_LatLon0.15_PT213H.grib2 2026-05-07 04:44 237K
20260507T00Z_MSC_GDPS_LatentHeatNetFlux_Sfc_LatLon0.15_PT213H.grib2 2026-05-07 04:44 678K
20260507T00Z_MSC_GDPS_NetLongwaveRadiationFlux-Accum_Sfc_LatLon0.15_PT213H.grib2 2026-05-07 04:44 918K
20260507T00Z_MSC_GDPS_NetShortwaveRadiationFlux-Accum_Sfc_LatLon0.15_PT213H.grib2 2026-05-07 04:44 871K
20260507T00Z_MSC_GDPS_O3MixingRatio_Sfc_LatLon0.15_PT213H.grib2 2026-05-07 04:56 1.9M
20260507T00Z_MSC_GDPS_O3_EAtm_LatLon0.15_PT213H.grib2 2026-05-07 04:56 2.5M
20260507T00Z_MSC_GDPS_PlanetaryBoundaryLayerHeight_Sfc_LatLon0.15_PT213H.grib2 2026-05-07 04:44 2.5M
20260507T00Z_MSC_GDPS_Precip-Accum_Sfc_LatLon0.15_PT213H.grib2 2026-05-07 04:44 5.1M
20260507T00Z_MSC_GDPS_PrecipRate_Sfc_LatLon0.15_PT213H.grib2 2026-05-07 04:44 3.1M
20260507T00Z_MSC_GDPS_Pressure_MSL_LatLon0.15_PT213H.grib2 2026-05-07 04:44 726K
20260507T00Z_MSC_GDPS_Pressure_Sfc_LatLon0.15_PT213H.grib2 2026-05-07 04:44 1.1M
20260507T00Z_MSC_GDPS_RadiativeTemp_Sfc_LatLon0.15_PT213H.grib2 2026-05-07 04:44 657K
20260507T00Z_MSC_GDPS_Rain-Accum_Sfc_LatLon0.15_PT213H.grib2 2026-05-07 04:44 4.1M
20260507T00Z_MSC_GDPS_RelativeHumidity_AGL-2m_LatLon0.15_PT213H.grib2 2026-05-07 04:44 1.0M
20260507T00Z_MSC_GDPS_Runoff-Accum_Sfc_LatLon0.15_PT213H.grib2 2026-05-07 04:44 137K
20260507T00Z_MSC_GDPS_SensibleHeatNetFlux_Sfc_LatLon0.15_PT213H.grib2 2026-05-07 04:44 609K
20260507T00Z_MSC_GDPS_Snow-Accum_Sfc_LatLon0.15_PT213H.grib2 2026-05-07 04:44 2.1M
20260507T00Z_MSC_GDPS_SnowDepth_Sfc_LatLon0.15_PT213H.grib2 2026-05-07 04:44 1.7M
20260507T00Z_MSC_GDPS_SoilTemp_DBS-0to10cm_LatLon0.15_PT213H.grib2 2026-05-07 04:44 515K
20260507T00Z_MSC_GDPS_SoilTemp_Sfc_LatLon0.15_PT213H.grib2 2026-05-07 04:44 572K
20260507T00Z_MSC_GDPS_SoilVolumetricWaterContent_DBS-0to10cm_LatLon0.15_PT213H.grib2 2026-05-07 04:44 607K
20260507T00Z_MSC_GDPS_SoilVolumetricWaterContent_DBS-0to1cm_LatLon0.15_PT213H.grib2 2026-05-07 04:44 646K
20260507T00Z_MSC_GDPS_SpecificHumidity_AGL-120m_LatLon0.15_PT213H.grib2 2026-05-07 04:44 1.1M
20260507T00Z_MSC_GDPS_SpecificHumidity_AGL-2m_LatLon0.15_PT213H.grib2 2026-05-07 04:44 1.2M
20260507T00Z_MSC_GDPS_SpecificHumidity_AGL-40m_LatLon0.15_PT213H.grib2 2026-05-07 04:44 1.1M
20260507T00Z_MSC_GDPS_SpecificHumidity_AGL-80m_LatLon0.15_PT213H.grib2 2026-05-07 04:44 1.1M
20260507T00Z_MSC_GDPS_SpecificHumidity_IsbL-0001_LatLon0.15_PT213H.grib2 2026-05-07 04:44 1.1M
20260507T00Z_MSC_GDPS_SpecificHumidity_IsbL-0005_LatLon0.15_PT213H.grib2 2026-05-07 04:44 1.0M
20260507T00Z_MSC_GDPS_SpecificHumidity_IsbL-0500_LatLon0.15_PT213H.grib2 2026-05-07 04:44 1.5M
20260507T00Z_MSC_GDPS_SpecificHumidity_IsbL-0700_LatLon0.15_PT213H.grib2 2026-05-07 04:44 1.7M
20260507T00Z_MSC_GDPS_SpecificHumidity_IsbL-0850_LatLon0.15_PT213H.grib2 2026-05-07 04:44 2.0M
20260507T00Z_MSC_GDPS_SpecificHumidity_IsbL-0925_LatLon0.15_PT213H.grib2 2026-05-07 04:44 1.6M
20260507T00Z_MSC_GDPS_SpecificHumidity_IsbL-1000_LatLon0.15_PT213H.grib2 2026-05-07 04:44 1.5M
20260507T00Z_MSC_GDPS_SpecificHumidity_Sfc_LatLon0.15_PT213H.grib2 2026-05-07 04:44 676K
20260507T00Z_MSC_GDPS_Thickness_IsbL-0850to0700_LatLon0.15_PT213H.grib2 2026-05-07 04:44 470K
20260507T00Z_MSC_GDPS_Thickness_IsbL-1000to0500_LatLon0.15_PT213H.grib2 2026-05-07 04:44 332K
20260507T00Z_MSC_GDPS_Thickness_IsbL-1000to0850_LatLon0.15_PT213H.grib2 2026-05-07 04:44 489K
20260507T00Z_MSC_GDPS_TotalCloudCover_Sfc_LatLon0.15_PT213H.grib2 2026-05-07 04:44 864K
20260507T00Z_MSC_GDPS_UVIndex-ClearSky_Sfc_LatLon0.15_PT213H.grib2 2026-05-07 04:56 1.0M
20260507T00Z_MSC_GDPS_UVIndex_Sfc_LatLon0.15_PT213H.grib2 2026-05-07 04:56 1.5M
20260507T00Z_MSC_GDPS_UpwardLongwaveRadiationFlux_NTAtm_LatLon0.15_PT213H.grib2 2026-05-07 04:44 848K
20260507T00Z_MSC_GDPS_VerticalVelocity_IsbL-0500_LatLon0.15_PT213H.grib2 2026-05-07 04:44 1.0M
20260507T00Z_MSC_GDPS_VerticalVelocity_IsbL-0700_LatLon0.15_PT213H.grib2 2026-05-07 04:44 1.4M
20260507T00Z_MSC_GDPS_VerticalVelocity_IsbL-0850_LatLon0.15_PT213H.grib2 2026-05-07 04:44 1.6M
20260507T00Z_MSC_GDPS_WindDir_AGL-10m_LatLon0.15_PT213H.grib2 2026-05-07 04:44 1.3M
20260507T00Z_MSC_GDPS_WindDir_AGL-120m_LatLon0.15_PT213H.grib2 2026-05-07 04:44 1.3M
20260507T00Z_MSC_GDPS_WindDir_AGL-40m_LatLon0.15_PT213H.grib2 2026-05-07 04:44 1.4M
20260507T00Z_MSC_GDPS_WindDir_AGL-80m_LatLon0.15_PT213H.grib2 2026-05-07 04:44 1.4M
20260507T00Z_MSC_GDPS_WindDir_IsbL-0001_LatLon0.15_PT213H.grib2 2026-05-07 04:44 649K
20260507T00Z_MSC_GDPS_WindDir_IsbL-0005_LatLon0.15_PT213H.grib2 2026-05-07 04:44 788K
20260507T00Z_MSC_GDPS_WindDir_IsbL-0500_LatLon0.15_PT213H.grib2 2026-05-07 04:44 1.3M
20260507T00Z_MSC_GDPS_WindDir_IsbL-0700_LatLon0.15_PT213H.grib2 2026-05-07 04:44 1.6M
20260507T00Z_MSC_GDPS_WindDir_IsbL-0850_LatLon0.15_PT213H.grib2 2026-05-07 04:44 1.9M
20260507T00Z_MSC_GDPS_WindDir_IsbL-0925_LatLon0.15_PT213H.grib2 2026-05-07 04:44 2.0M
20260507T00Z_MSC_GDPS_WindDir_IsbL-1000_LatLon0.15_PT213H.grib2 2026-05-07 04:44 2.1M
20260507T00Z_MSC_GDPS_WindGust-Max_AGL-10m_LatLon0.15_PT213H.grib2 2026-05-07 04:44 2.3M
20260507T00Z_MSC_GDPS_WindGust-Min_AGL-10m_LatLon0.15_PT213H.grib2 2026-05-07 04:44 2.2M
20260507T00Z_MSC_GDPS_WindGust_AGL-10m_LatLon0.15_PT213H.grib2 2026-05-07 04:44 2.2M
20260507T00Z_MSC_GDPS_WindSpeed_AGL-10m_LatLon0.15_PT213H.grib2 2026-05-07 04:44 1.1M
20260507T00Z_MSC_GDPS_WindSpeed_AGL-120m_LatLon0.15_PT213H.grib2 2026-05-07 04:44 1.3M
20260507T00Z_MSC_GDPS_WindSpeed_AGL-40m_LatLon0.15_PT213H.grib2 2026-05-07 04:44 1.2M
20260507T00Z_MSC_GDPS_WindSpeed_AGL-80m_LatLon0.15_PT213H.grib2 2026-05-07 04:44 1.2M
20260507T00Z_MSC_GDPS_WindSpeed_IsbL-0001_LatLon0.15_PT213H.grib2 2026-05-07 04:44 506K
20260507T00Z_MSC_GDPS_WindSpeed_IsbL-0005_LatLon0.15_PT213H.grib2 2026-05-07 04:44 693K
20260507T00Z_MSC_GDPS_WindSpeed_IsbL-0500_LatLon0.15_PT213H.grib2 2026-05-07 04:44 1.1M
20260507T00Z_MSC_GDPS_WindSpeed_IsbL-0700_LatLon0.15_PT213H.grib2 2026-05-07 04:44 1.5M
20260507T00Z_MSC_GDPS_WindSpeed_IsbL-0850_LatLon0.15_PT213H.grib2 2026-05-07 04:44 1.8M
20260507T00Z_MSC_GDPS_WindSpeed_IsbL-0925_LatLon0.15_PT213H.grib2 2026-05-07 04:44 1.9M
20260507T00Z_MSC_GDPS_WindSpeed_IsbL-1000_LatLon0.15_PT213H.grib2 2026-05-07 04:44 1.9M
20260507T00Z_MSC_GDPS_WindU_AGL-10m_LatLon0.15_PT213H.grib2 2026-05-07 04:44 1.6M
20260507T00Z_MSC_GDPS_WindU_AGL-120m_LatLon0.15_PT213H.grib2 2026-05-07 04:44 1.0M
20260507T00Z_MSC_GDPS_WindU_AGL-40m_LatLon0.15_PT213H.grib2 2026-05-07 04:44 1.0M
20260507T00Z_MSC_GDPS_WindU_AGL-80m_LatLon0.15_PT213H.grib2 2026-05-07 04:44 1.0M
20260507T00Z_MSC_GDPS_WindU_IsbL-0001_LatLon0.15_PT213H.grib2 2026-05-07 04:44 598K
20260507T00Z_MSC_GDPS_WindU_IsbL-0005_LatLon0.15_PT213H.grib2 2026-05-07 04:44 689K
20260507T00Z_MSC_GDPS_WindU_IsbL-0500_LatLon0.15_PT213H.grib2 2026-05-07 04:44 1.1M
20260507T00Z_MSC_GDPS_WindU_IsbL-0700_LatLon0.15_PT213H.grib2 2026-05-07 04:44 1.2M
20260507T00Z_MSC_GDPS_WindU_IsbL-0850_LatLon0.15_PT213H.grib2 2026-05-07 04:44 1.4M
20260507T00Z_MSC_GDPS_WindU_IsbL-0925_LatLon0.15_PT213H.grib2 2026-05-07 04:44 1.5M
20260507T00Z_MSC_GDPS_WindU_IsbL-1000_LatLon0.15_PT213H.grib2 2026-05-07 04:44 1.7M
20260507T00Z_MSC_GDPS_WindV_AGL-10m_LatLon0.15_PT213H.grib2 2026-05-07 04:44 1.6M
20260507T00Z_MSC_GDPS_WindV_AGL-120m_LatLon0.15_PT213H.grib2 2026-05-07 04:44 1.0M
20260507T00Z_MSC_GDPS_WindV_AGL-40m_LatLon0.15_PT213H.grib2 2026-05-07 04:44 1.0M
20260507T00Z_MSC_GDPS_WindV_AGL-80m_LatLon0.15_PT213H.grib2 2026-05-07 04:44 1.0M
20260507T00Z_MSC_GDPS_WindV_IsbL-0001_LatLon0.15_PT213H.grib2 2026-05-07 04:44 794K
20260507T00Z_MSC_GDPS_WindV_IsbL-0005_LatLon0.15_PT213H.grib2 2026-05-07 04:44 864K
20260507T00Z_MSC_GDPS_WindV_IsbL-0500_LatLon0.15_PT213H.grib2 2026-05-07 04:44 1.1M
20260507T00Z_MSC_GDPS_WindV_IsbL-0700_LatLon0.15_PT213H.grib2 2026-05-07 04:44 1.2M
20260507T00Z_MSC_GDPS_WindV_IsbL-0850_LatLon0.15_PT213H.grib2 2026-05-07 04:44 1.4M
20260507T00Z_MSC_GDPS_WindV_IsbL-0925_LatLon0.15_PT213H.grib2 2026-05-07 04:44 1.5M
20260507T00Z_MSC_GDPS_WindV_IsbL-1000_LatLon0.15_PT213H.grib2 2026-05-07 04:44 1.7M